XML Sitemap

This is a XML Sitemap which is supposed to be processed by search engines which follow the XML Sitemap standard like Ask.com, Bing, Google and Yahoo.
It was generated using the WordPress content management system and the Google Sitemap Generator Plugin by Arne Brachhold.
You can find more information about XML sitemaps on sitemaps.org and Google's list of sitemap programs.

URLPriorityChange frequencyLast modified (GMT)
https://100frames.com/33-small-calendar-2019-printable-november/50%Daily2019-03-09 14:46
https://100frames.com/30-monthly-desk-calendar/50%Daily2019-03-09 14:45
https://100frames.com/35-free-printable-weekly-homework-calendars/50%Daily2019-03-09 14:44
https://100frames.com/25-printable-july-2019-calendar-free/50%Daily2019-03-09 14:42
https://100frames.com/31-printable-mini-calendar-june-2019/50%Daily2019-03-09 14:40
https://100frames.com/31-printable-calendar-may-2019-pdf/50%Daily2019-03-09 14:40
https://100frames.com/33-create-a-printable-calendar-on-ipad/50%Daily2019-03-09 14:37
https://100frames.com/30-calendar-page-june-2019/50%Daily2019-03-09 14:35
https://100frames.com/30-free-printable-lenten-calendar/50%Daily2019-03-09 14:35
https://100frames.com/31-hallmark-calendar-2019-2020/50%Daily2019-03-09 14:33
https://100frames.com/22-printable-large-blank-december-calendar/50%Daily2019-03-09 14:31
https://100frames.com/20-printable-december-2019-calendar-christmas-theme/50%Daily2019-03-09 14:30
https://100frames.com/30-december-2019-calendar-planner/50%Daily2019-03-09 14:29
https://100frames.com/33-moon-phase-calendar-printable/50%Daily2019-03-09 14:27
https://100frames.com/30-ccsd-calendar-2019-2020-year/50%Daily2019-03-09 14:25
https://100frames.com/32-free-printable-monthly-calendar-2019-december/50%Daily2019-03-09 14:24
https://100frames.com/32-printable-6-week-calendar/50%Daily2019-03-09 14:22
https://100frames.com/21-printable-calendar-september-2019-australia/50%Daily2019-03-09 14:20
https://100frames.com/32-printable-calendar-planner/50%Daily2019-03-09 14:20
https://100frames.com/33-printable-calendar-november-2019-to-january-2019/50%Daily2019-03-09 14:18
https://100frames.com/35-national-food-day-calendar-printable/50%Daily2019-03-09 14:16
https://100frames.com/32-august-printable-calendar-pdf/50%Daily2019-03-09 14:15
https://100frames.com/34-printable-calendar-2019-spooky/50%Daily2019-03-09 14:13
https://100frames.com/34-november-diary-2019/50%Daily2019-03-09 14:11
https://100frames.com/34-printable-pages-calendar-and-travel-expense/50%Daily2019-03-09 14:10
https://100frames.com/34-printable-tear-off-countdown-calendar/50%Daily2019-03-09 14:07
https://100frames.com/33-month-of-may-printable-calendar/50%Daily2019-03-09 14:05
https://100frames.com/34-birchbox-advent-calendar/50%Daily2019-03-09 14:04
https://100frames.com/33-printable-kid-calendars-free/50%Daily2019-03-09 14:02
https://100frames.com/30-calendar-for-printing-2019-printable/50%Daily2019-03-09 14:00
https://100frames.com/33-printable-calendar-2019-indonesia/50%Daily2019-03-09 14:00
https://100frames.com/34-north-carolina-court-calendar/50%Daily2019-03-09 13:55
https://100frames.com/31-print-a-calendar-january-2019/50%Daily2019-03-09 13:55
https://100frames.com/31-auguest-calendar-printable/50%Daily2019-03-09 13:53
https://100frames.com/32-2019-2020-calendar-printable/50%Daily2019-03-09 13:50
https://100frames.com/25-atlanta-telugu-calendar/50%Daily2019-03-09 13:50
https://100frames.com/35-november-schedule-2019-printable-calendar/50%Daily2019-03-09 13:48
https://100frames.com/30-printable-april-17-calendar/50%Daily2019-03-09 13:46
https://100frames.com/23-december-printable-editable-calendar-2019/50%Daily2019-03-09 13:45
https://100frames.com/31-event-calendar-template/50%Daily2019-03-09 13:43
https://100frames.com/34-printable-july-august-calendar-2019/50%Daily2019-03-09 13:41
https://100frames.com/17-my-little-pony-calendar-printable/50%Daily2019-03-09 13:39
https://100frames.com/14-what-is-equinox-and-solstice/50%Daily2019-03-09 13:39
https://100frames.com/33-half-size-printable-2019-calendar/50%Daily2019-03-09 13:38
https://100frames.com/33-printable-month-of-december-2019-calendar/50%Daily2019-03-09 13:35
https://100frames.com/33-printable-blank-calendar-software/50%Daily2019-03-09 13:35
https://100frames.com/30-april-2105-printable-calendar/50%Daily2019-03-09 13:32
https://100frames.com/35-calendar-january-2019-february-2019/50%Daily2019-03-09 13:31
https://100frames.com/34-2019-june-printable-monthly-calendars/50%Daily2019-03-09 13:29
https://100frames.com/33-one-week-calendar-printable-breakfast-lunch-and-dinner/50%Daily2019-03-09 13:27
https://100frames.com/35-printable-calendar-with-2-months-per-page/50%Daily2019-03-09 13:26
https://100frames.com/30-us-2019-calendar-printable/50%Daily2019-03-09 13:25
https://100frames.com/30-april-2019-calendar-printable-and-editable/50%Daily2019-03-09 13:23
https://100frames.com/35-october-2019-calendar-page/50%Daily2019-03-09 13:20
https://100frames.com/26-funny-dog-calendars/50%Daily2019-03-09 13:20
https://100frames.com/32-calendar-2019-december-pdf/50%Daily2019-03-09 13:18
https://100frames.com/34-free-printable-calendar-two-pages-per-month/50%Daily2019-03-09 13:15
https://100frames.com/33-january-to-june-2019-calendar/50%Daily2019-03-09 13:15
https://100frames.com/30-52-week-money-challenge-calendar-printable-2019/50%Daily2019-03-09 13:13
https://100frames.com/34-march-2019-printable-calendar-word-doc/50%Daily2019-03-09 13:11
https://100frames.com/31-february-2019-printable-calendar-monday-start/50%Daily2019-03-09 13:11
https://100frames.com/30-detroit-red-wings-printable-calendar/50%Daily2019-03-09 13:08
https://100frames.com/33-july-2019-printable-calendar-nz/50%Daily2019-03-09 13:06
https://100frames.com/31-dallas-isd-calendar-2019/50%Daily2019-03-09 13:07
https://100frames.com/33-december-2019-holidays/50%Daily2019-03-09 13:03
https://100frames.com/24-june-printable-calendar-2019-pdf/50%Daily2019-03-09 13:01
https://100frames.com/35-free-printable-calendar-visual-schedule-weekly/50%Daily2019-03-09 13:00
https://100frames.com/30-free-two-month-printable-calendar-2019/50%Daily2019-03-09 12:59
https://100frames.com/24-printable-calendar-of-july-and-august-2019/50%Daily2019-03-09 12:57
https://100frames.com/31-printable-notebook-calendar-2019-2020/50%Daily2019-03-09 12:55
https://100frames.com/31-august-2019-calendar-printable-and-editable/50%Daily2019-03-09 12:55
https://100frames.com/31-uncc-calendar-printable/50%Daily2019-03-09 12:52
https://100frames.com/31-october-november-december-calendar-2019/50%Daily2019-03-09 12:51
https://100frames.com/33-printable-may-2019-calendar-template/50%Daily2019-03-09 12:49
https://100frames.com/34-printable-exercise-calendar/50%Daily2019-03-09 12:47
https://100frames.com/30-cute-printable-calendar-for-august/50%Daily2019-03-09 12:45
https://100frames.com/30-district-196-calendar/50%Daily2019-03-09 12:44
https://100frames.com/33-lipstick-advent-calendar/50%Daily2019-03-09 12:42
https://100frames.com/22-2019-calendar-pdf-printable/50%Daily2019-03-09 12:40
https://100frames.com/34-pregnancy-calendar-printable/50%Daily2019-03-09 12:40
https://100frames.com/33-august-2019-calendar-printable-horizontal/50%Daily2019-03-09 12:37
https://100frames.com/33-printable-reading-log-calendar/50%Daily2019-03-09 12:35
https://100frames.com/33-2019-calendar-april-printable/50%Daily2019-03-09 12:34
https://100frames.com/30-2019-free-large-print-printable-calendar/50%Daily2019-03-09 12:32
https://100frames.com/22-chase-freedom-calendar-2019/50%Daily2019-03-09 12:30
https://100frames.com/24-november-calendar-2019-with-notes-printable/50%Daily2019-03-09 12:29
https://100frames.com/32-calendar-2019-pdf-printable/50%Daily2019-03-09 12:27
https://100frames.com/17-2019-calendars-for-sale/50%Daily2019-03-09 12:25
https://100frames.com/30-print-out-calendar-for-2019/50%Daily2019-03-09 12:25
https://100frames.com/33-print-dec-2019-calendar/50%Daily2019-03-09 12:23
https://100frames.com/30-printable-calendars-you-can-edit/50%Daily2019-03-09 12:21
https://100frames.com/30-countdown-calendar-printable-wedding/50%Daily2019-03-09 12:20
https://100frames.com/33-2019-printable-photo-calendar-template/50%Daily2019-03-09 12:19
https://100frames.com/31-national-month-calendar/50%Daily2019-03-09 12:16
https://100frames.com/32-blank-free-printable-calendar-for-august-2019/50%Daily2019-03-09 12:15
https://100frames.com/33-free-printable-2019-coloring-calendar/50%Daily2019-03-09 12:13
https://100frames.com/32-calendar-2019-printable-february/50%Daily2019-03-09 12:11
https://100frames.com/32-printable-may-calendar-with-holidays/50%Daily2019-03-09 12:11
https://100frames.com/34-touch-screen-calendar/50%Daily2019-03-09 12:09
https://100frames.com/35-diy-calendar-printable/50%Daily2019-03-09 12:07
https://100frames.com/1-pvusd-calendar-2019-2020/50%Daily2019-03-09 12:04
https://100frames.com/35-december-2019-calendar-printable-free/50%Daily2019-03-09 12:05
https://100frames.com/24-calendario-para-imprimir/50%Daily2019-03-09 12:03
https://100frames.com/34-sugar-paper-desk-calendar/50%Daily2019-03-09 12:01
https://100frames.com/30-printable-2019-yearly-calendar-canada/50%Daily2019-03-09 12:00
https://100frames.com/31-january-2019-calendar-with-notes/50%Daily2019-03-09 11:59
https://100frames.com/15-blank-april-monthly-calendar/50%Daily2019-03-09 11:57
https://100frames.com/30-printable-calendar-april-and-may/50%Daily2019-03-09 11:55
https://100frames.com/24-blank-september-calendar-to-print/50%Daily2019-03-09 11:55
https://100frames.com/30-free-editable-calendar-2019/50%Daily2019-03-09 11:53
https://100frames.com/30-printable-calendar-labels/50%Daily2019-03-09 11:50
https://100frames.com/26-2019-nypd-rdo/50%Daily2019-03-09 11:50
https://100frames.com/34-disney-calendar-maker-printable/50%Daily2019-03-09 11:46
https://100frames.com/35-printable-december-2019-calendar-christmas/50%Daily2019-03-09 11:46
https://100frames.com/34-funky-creative-calendars-printable-with-quotes/50%Daily2019-03-09 11:44
https://100frames.com/34-nyc-school-calendar-2019-2019/50%Daily2019-03-09 11:42
https://100frames.com/31-real-estate-magnetic-calendars/50%Daily2019-03-09 11:41
https://100frames.com/35-month-of-december-2019/50%Daily2019-03-09 11:40
https://100frames.com/33-3-year-calendar-2019-2020-to-2020/50%Daily2019-03-09 11:37
https://100frames.com/22-november-printable-day-calendar-by-the-hour/50%Daily2019-03-09 11:35
https://100frames.com/33-columbus-events-calendar/50%Daily2019-03-09 11:35
https://100frames.com/35-free-calendar-printable-pieces/50%Daily2019-03-09 11:33
https://100frames.com/31-july-printable-calendar-free/50%Daily2019-03-09 11:31
https://100frames.com/35-beautiful-calendar-2019-printable/50%Daily2019-03-09 11:31
https://100frames.com/24-pocket-monthly-calendars/50%Daily2019-03-09 11:29
https://100frames.com/31-november-11-2019-holiday/50%Daily2019-03-09 11:27
https://100frames.com/33-cute-printable-weekly-calendar-2019/50%Daily2019-03-09 11:25
https://100frames.com/31-printable-child-care-calendars/50%Daily2019-03-09 11:24
https://100frames.com/32-kid-august-calendar-printable/50%Daily2019-03-09 11:22
https://100frames.com/35-cheap-custom-calendars/50%Daily2019-03-09 11:20
https://100frames.com/35-february-2019-calendar-printable-with-notes/50%Daily2019-03-09 11:19
https://100frames.com/31-calendar-feb-and-march-2019/50%Daily2019-03-09 11:17
https://100frames.com/34-united-center-calendar/50%Daily2019-03-09 11:15
https://100frames.com/7-baha-i-calendar-2019-2020/50%Daily2019-03-09 11:14
https://100frames.com/31-printable-month-by-month-calendar/50%Daily2019-03-09 11:13
https://100frames.com/31-free-printable-calendar-december-2019-pdf/50%Daily2019-03-09 11:11
https://100frames.com/35-green-mill-calendar/50%Daily2019-03-09 11:11
https://100frames.com/30-blank-calendar-page-july-2019/50%Daily2019-03-09 11:10
https://100frames.com/30-make-your-own-free-printable-calendar-2019/50%Daily2019-03-09 11:08
https://100frames.com/30-2019-daily-planner-calendar-printable/50%Daily2019-03-09 11:06
https://100frames.com/34-countdown-to-christmas-printable-blank-calendar/50%Daily2019-03-09 11:06
https://100frames.com/33-blank-may-june-calendar/50%Daily2019-03-09 11:04
https://100frames.com/34-school-calendar-2019-19-2019-19-two-year-calendars-printable-templates-two-year-calendar-expressionludocreative-org/50%Daily2019-03-09 11:01
https://100frames.com/31-printable-full-moon-calendar-2019/50%Daily2019-03-09 11:01
https://100frames.com/35-october-2019-calendar-free-printable/50%Daily2019-03-09 10:58
https://100frames.com/31-printable-january-calendar-template/50%Daily2019-03-09 10:56
https://100frames.com/34-june-2019-calendar-holidays/50%Daily2019-03-09 10:55
https://100frames.com/33-printable-calendar-com/50%Daily2019-03-09 10:53
https://100frames.com/32-printable-weekly-calendar-2019-uk/50%Daily2019-03-09 10:51
https://100frames.com/30-great-printable-calendars/50%Daily2019-03-09 10:50
https://100frames.com/31-free-weekly-calendar-template-school-schedule-printable/50%Daily2019-03-09 10:48
https://100frames.com/31-december-2019-calendar-printable-penguin/50%Daily2019-03-09 10:45
https://100frames.com/33-free-printable-yearly-calendar-with-holidays/50%Daily2019-03-09 10:46
https://100frames.com/34-printable-calendar-and-business-card-section-contents/50%Daily2019-03-09 10:42
https://100frames.com/30-year-at-a-glance-calendar-2019-2019-academic-free-printable/50%Daily2019-03-09 10:40
https://100frames.com/32-shining-mom-printable-calendar/50%Daily2019-03-09 10:40
https://100frames.com/35-costco-calendar-promo-code/50%Daily2019-03-09 10:38
https://100frames.com/31-solar-calendar-2019-2020/50%Daily2019-03-09 10:36
https://100frames.com/32-arabic-calendar-2019-2020/50%Daily2019-03-09 10:35
https://100frames.com/34-calendar-printable-creator/50%Daily2019-03-09 10:32
https://100frames.com/30-may-calendar-printable-for-kids/50%Daily2019-03-09 10:30